AEROCUBE 7C

Last updated on Fri Feb 15 2019 03:06:12 GMT+0000 (Coordinated Universal Time)

1 43043U 17071G 19045.29817847 .00002853 00000-0 79389-4 0 9993 2 43043 51.6391 300.7170 0005546 70.5638 289.5945 15.40360993 66877
UTC large
Height (km)
Speed (km/s)
/
Latitude / Longitude
Inclination (degrees)
Orbital Period (minutes)
Azimuth
Elevation
Range (km)
Doppler Factor

Next 0 passes for location: London (51.5072 / 0.1276)

Sorry there are no passes over London.